status,avgMeasuredTime,avgSpeed,extID,medianMeasuredTime,TIMESTAMP,vehicleCount,_id,REPORT_ID
OK,139,16,621,139,2014-08-01T07:50:00,3,20746173,187218
OK,94,25,621,94,2014-08-01T07:55:00,4,20746345,187218
OK,63,37,621,63,2014-08-01T08:00:00,3,20746676,187218
OK,63,37,621,63,2014-08-01T08:05:00,1,20747125,187218
OK,63,37,621,63,2014-08-01T08:10:00,0,20747498,187218
OK,63,37,621,63,2014-08-01T08:15:00,0,20747947,187218
OK,63,37,621,63,2014-08-01T08:20:00,0,20748396,187218
OK,215,10,621,215,2014-08-01T08:25:00,1,20748845,187218
OK,190,12,621,190,2014-08-01T08:30:00,5,20749294,187218
OK,128,18,621,128,2014-08-01T08:35:00,6,20749743,187218
OK,110,21,621,110,2014-08-01T08:40:00,3,20750192,187218
OK,80,29,621,80,2014-08-01T08:45:00,2,20750641,187218
OK,51,46,621,51,2014-08-01T08:50:00,1,20751090,187218
OK,51,46,621,51,2014-08-01T08:55:00,0,20751539,187218
OK,51,46,621,51,2014-08-01T09:00:00,0,20751988,187218
OK,111,21,621,111,2014-08-01T09:05:00,1,20752437,187218
OK,129,18,621,129,2014-08-01T09:10:00,4,20752886,187218
OK,153,15,621,153,2014-08-01T09:15:00,2,20753335,187218
OK,158,14,621,158,2014-08-01T09:20:00,1,20753784,187218
OK,158,14,621,158,2014-08-01T09:25:00,0,20754233,187218
OK,151,15,621,151,2014-08-01T09:30:00,1,20754682,187218
OK,114,20,621,114,2014-08-01T09:35:00,2,20755131,187218
OK,77,30,621,77,2014-08-01T09:40:00,1,20755580,187218
OK,127,18,621,127,2014-08-01T09:45:00,3,20756029,187218
OK,127,18,621,127,2014-08-01T09:50:00,3,20756478,187218
OK,76,30,621,76,2014-08-01T09:55:00,2,20756927,187218
OK,76,30,621,76,2014-08-01T10:00:00,2,20757376,187218
OK,145,16,621,145,2014-08-01T10:05:00,2,20757825,187218
OK,134,17,621,134,2014-08-01T10:10:00,2,20758274,187218
OK,133,17,621,133,2014-08-01T10:15:00,1,20758723,187218
OK,133,17,621,133,2014-08-01T10:20:00,0,20759172,187218
OK,78,30,621,78,2014-08-01T10:25:00,1,20759621,187218
OK,127,18,621,127,2014-08-01T10:30:00,2,20760070,187218
OK,121,19,621,121,2014-08-01T10:35:00,3,20760519,187218
OK,116,20,621,116,2014-08-01T10:40:00,3,20760968,187218
OK,141,16,621,141,2014-08-01T10:45:00,2,20761417,187218
OK,154,15,621,154,2014-08-01T10:50:00,2,20761866,187218
OK,87,27,621,87,2014-08-01T10:55:00,2,20762315,187218
OK,90,26,621,90,2014-08-01T11:00:00,3,20762764,187218
OK,124,18,621,124,2014-08-01T11:05:00,2,20763213,187218
OK,155,15,621,155,2014-08-01T11:10:00,1,20763662,187218
OK,155,15,621,155,2014-08-01T11:15:00,0,20764111,187218
OK,111,21,621,111,2014-08-01T11:20:00,1,20764559,187218
OK,111,21,621,111,2014-08-01T11:25:00,1,20765008,187218
OK,81,29,621,81,2014-08-01T11:30:00,1,20765457,187218
OK,130,18,621,130,2014-08-01T11:35:00,3,20765906,187218
OK,113,20,621,113,2014-08-01T11:40:00,4,20766355,187218
OK,120,19,621,120,2014-08-01T11:45:00,2,20766804,187218
OK,113,20,621,113,2014-08-01T11:50:00,2,20767253,187218
OK,125,18,621,125,2014-08-01T11:55:00,2,20767702,187218
OK,168,13,621,168,2014-08-01T12:00:00,1,20768151,187218
OK,168,13,621,168,2014-08-01T12:05:00,0,20768600,187218
OK,168,13,621,168,2014-08-01T12:10:00,0,20769049,187218
OK,168,13,621,168,2014-08-01T12:15:00,0,20769498,187218
OK,98,23,621,98,2014-08-01T12:20:00,2,20769947,187218
OK,98,23,621,98,2014-08-01T12:25:00,2,20770396,187218
OK,98,23,621,98,2014-08-01T12:30:00,0,20770845,187218
OK,135,17,621,135,2014-08-01T12:35:00,1,20771294,187218
OK,135,17,621,135,2014-08-01T12:40:00,1,20771743,187218
OK,67,35,621,67,2014-08-01T12:45:00,1,20772192,187218
OK,118,19,621,118,2014-08-01T12:50:00,2,20772641,187218
OK,119,19,621,119,2014-08-01T12:55:00,2,20773090,187218
OK,70,33,621,70,2014-08-01T13:00:00,1,20773539,187218
OK,70,33,621,70,2014-08-01T13:05:00,0,20773988,187218
OK,70,33,621,70,2014-08-01T13:10:00,0,20774437,187218
OK,181,12,621,181,2014-08-01T13:15:00,2,20774886,187218
OK,223,10,621,223,2014-08-01T13:20:00,3,20775335,187218
OK,239,9,621,239,2014-08-01T13:25:00,2,20775784,187218
OK,133,17,621,133,2014-08-01T13:30:00,3,20776233,187218
OK,133,17,621,133,2014-08-01T13:35:00,2,20776682,187218
OK,150,15,621,150,2014-08-01T13:40:00,3,20777131,187218
OK,129,18,621,129,2014-08-01T13:45:00,2,20777580,187218
OK,108,21,621,108,2014-08-01T13:50:00,2,20778029,187218
OK,156,15,621,156,2014-08-01T13:55:00,2,20778478,187218
OK,204,11,621,204,2014-08-01T14:00:00,1,20778927,187218
OK,58,40,621,58,2014-08-01T14:05:00,2,20779376,187218
OK,58,40,621,58,2014-08-01T14:10:00,0,20779825,187218
OK,58,40,621,58,2014-08-01T14:15:00,0,20780274,187218
OK,58,40,621,58,2014-08-01T14:20:00,0,20780723,187218
OK,58,40,621,58,2014-08-01T14:25:00,0,20781172,187218
OK,58,40,621,58,2014-08-01T14:30:00,0,20781621,187218
OK,127,18,621,127,2014-08-01T14:35:00,1,20782070,187218
OK,110,21,621,110,2014-08-01T14:40:00,3,20782519,187218
OK,60,39,621,60,2014-08-01T14:45:00,3,20782968,187218
OK,55,42,621,55,2014-08-01T14:50:00,1,20783417,187218
OK,55,42,621,55,2014-08-01T14:55:00,0,20783866,187218
OK,103,22,621,103,2014-08-01T15:00:00,1,20784315,187218
OK,103,22,621,103,2014-08-01T15:05:00,1,20784764,187218
OK,103,22,621,103,2014-08-01T15:10:00,0,20785213,187218
OK,103,22,621,103,2014-08-01T15:15:00,0,20785662,187218
OK,77,30,621,77,2014-08-01T15:20:00,1,20786111,187218
OK,77,30,621,77,2014-08-01T15:25:00,1,20786560,187218
OK,77,30,621,77,2014-08-01T15:30:00,0,20787009,187218
OK,117,20,621,117,2014-08-01T15:35:00,1,20787458,187218
OK,111,21,621,111,2014-08-01T15:40:00,2,20787907,187218
OK,105,22,621,105,2014-08-01T15:45:00,1,20788356,187218
OK,105,22,621,105,2014-08-01T15:50:00,0,20788805,187218
OK,105,22,621,105,2014-08-01T15:55:00,0,20789254,187218
OK,105,22,621,105,2014-08-01T16:00:00,0,20789703,187218
OK,105,22,621,105,2014-08-01T16:05:00,0,20790152,187218
OK,105,22,621,105,2014-08-01T16:10:00,0,20790601,187218
OK,105,22,621,105,2014-08-01T16:15:00,0,20791050,187218
OK,105,22,621,105,2014-08-01T16:20:00,0,20791499,187218
OK,105,22,621,105,2014-08-01T16:25:00,0,20791948,187218
OK,105,22,621,105,2014-08-01T16:30:00,0,20792397,187218
OK,96,24,621,96,2014-08-01T16:35:00,1,20792846,187218
OK,96,24,621,96,2014-08-01T16:40:00,1,20793295,187218
OK,96,24,621,96,2014-08-01T16:45:00,0,20793744,187218
OK,96,24,621,96,2014-08-01T16:50:00,0,20794193,187218
OK,96,24,621,96,2014-08-01T16:55:00,0,20794642,187218
OK,96,24,621,96,2014-08-01T17:00:00,0,20795091,187218
OK,130,18,621,130,2014-08-01T17:05:00,1,20795540,187218
OK,130,18,621,130,2014-08-01T17:10:00,1,20795989,187218
OK,130,18,621,130,2014-08-01T17:15:00,0,20796438,187218
OK,130,18,621,130,2014-08-01T17:20:00,0,20796887,187218
OK,130,18,621,130,2014-08-01T17:25:00,0,20797336,187218
OK,130,18,621,130,2014-08-01T17:30:00,0,20797785,187218
OK,130,18,621,130,2014-08-01T17:35:00,0,20798234,187218
OK,130,18,621,130,2014-08-01T17:40:00,0,20798683,187218
OK,130,18,621,130,2014-08-01T17:45:00,0,20799132,187218
OK,130,18,621,130,2014-08-01T17:50:00,0,20799581,187218
OK,130,18,621,130,2014-08-01T17:55:00,0,20800030,187218
OK,34,69,621,34,2014-08-01T18:00:00,1,20800479,187218
OK,34,69,621,34,2014-08-01T18:05:00,1,20800928,187218
OK,34,69,621,34,2014-08-01T18:10:00,0,20801377,187218
OK,34,69,621,34,2014-08-01T18:15:00,0,20801826,187218
OK,34,69,621,34,2014-08-01T18:20:00,0,20802275,187218
OK,34,69,621,34,2014-08-01T18:25:00,0,20802724,187218
OK,34,69,621,34,2014-08-01T18:30:00,0,20803173,187218
OK,34,69,621,34,2014-08-01T18:35:00,0,20803622,187218
OK,34,69,621,34,2014-08-01T18:40:00,0,20804071,187218
OK,21,111,621,21,2014-08-01T18:45:00,1,20804520,187218
OK,61,38,621,61,2014-08-01T18:50:00,2,20804969,187218
OK,102,23,621,102,2014-08-01T18:55:00,1,20805418,187218
OK,102,23,621,102,2014-08-01T19:00:00,0,20805867,187218
OK,102,23,621,102,2014-08-01T19:05:00,0,20806316,187218
OK,102,23,621,102,2014-08-01T19:10:00,0,20806765,187218
OK,102,23,621,102,2014-08-01T19:15:00,0,20807214,187218
OK,102,23,621,102,2014-08-01T19:20:00,0,20807663,187218
OK,88,26,621,88,2014-08-01T19:25:00,1,20808112,187218
OK,88,26,621,88,2014-08-01T19:30:00,0,20808561,187218
OK,88,26,621,88,2014-08-01T19:35:00,0,20809010,187218
OK,88,26,621,88,2014-08-01T19:40:00,0,20809459,187218
OK,66,35,621,66,2014-08-01T19:45:00,1,20809908,187218
OK,66,35,621,66,2014-08-01T19:50:00,1,20810357,187218
OK,66,35,621,66,2014-08-01T19:55:00,0,20810806,187218
OK,66,35,621,66,2014-08-01T20:00:00,0,20811254,187218
OK,66,35,621,66,2014-08-01T20:05:00,0,20811628,187218
OK,66,35,621,66,2014-08-01T20:10:00,0,20811835,187218
OK,66,35,621,66,2014-08-01T20:20:00,0,20812043,187218
OK,66,35,621,66,2014-08-01T20:25:00,0,20812476,187218
OK,66,35,621,66,2014-08-01T20:30:00,0,20812686,187218
OK,55,42,621,55,2014-08-01T20:40:00,0,20812888,187218
OK,55,42,621,55,2014-08-01T20:45:00,0,20813094,187218
OK,55,42,621,55,2014-08-01T20:50:00,0,20813305,187218
OK,55,42,621,55,2014-08-01T20:55:00,0,20813535,187218
OK,33,71,621,33,2014-08-01T21:00:00,1,20813773,187218
OK,33,71,621,33,2014-08-01T21:05:00,1,20813951,187218
OK,33,71,621,33,2014-08-01T21:10:00,0,20814190,187218
OK,60,39,621,60,2014-08-01T21:20:00,0,20814592,187218
OK,60,39,621,60,2014-08-01T21:30:00,0,20815097,187218
OK,60,39,621,60,2014-08-01T21:35:00,0,20815331,187218
OK,60,39,621,60,2014-08-01T21:40:00,0,20815554,187218
OK,60,39,621,60,2014-08-01T21:45:00,0,20815791,187218
OK,60,39,621,60,2014-08-01T21:50:00,0,20816032,187218
OK,60,39,621,60,2014-08-01T21:55:00,0,20816267,187218
OK,60,39,621,60,2014-08-01T22:00:00,0,20816535,187218
OK,60,39,621,60,2014-08-01T22:05:00,0,20816984,187218
OK,60,39,621,60,2014-08-01T22:10:00,0,20817306,187218
OK,60,39,621,60,2014-08-01T22:15:00,0,20817735,187218
OK,60,39,621,60,2014-08-01T22:20:00,0,20818025,187218
OK,60,39,621,60,2014-08-01T22:25:00,0,20818341,187218
OK,60,39,621,60,2014-08-01T22:30:00,0,20818675,187218
OK,60,39,621,60,2014-08-01T22:40:00,0,20819159,187218
OK,71,33,621,71,2014-08-01T22:45:00,1,20819447,187218
OK,71,33,621,71,2014-08-01T22:50:00,0,20819682,187218
OK,71,33,621,71,2014-08-01T22:55:00,0,20819935,187218
OK,71,33,621,71,2014-08-01T23:00:00,0,20820111,187218
OK,71,33,621,71,2014-08-01T23:05:00,0,20820364,187218
OK,71,33,621,71,2014-08-01T23:10:00,0,20820594,187218
OK,71,33,621,71,2014-08-01T23:15:00,0,20820782,187218
OK,71,33,621,71,2014-08-01T23:25:00,0,20821211,187218
OK,71,33,621,71,2014-08-01T23:30:00,0,20821436,187218
OK,71,33,621,71,2014-08-01T23:35:00,0,20821681,187218
OK,71,33,621,71,2014-08-01T23:40:00,0,20821860,187218
OK,71,33,621,71,2014-08-01T23:45:00,0,20822083,187218
OK,71,33,621,71,2014-08-01T23:50:00,0,20822350,187218
OK,71,33,621,71,2014-08-01T23:55:00,0,20822676,187218
OK,71,33,621,71,2014-08-02T00:00:00,0,20822974,187218
OK,71,33,621,71,2014-08-02T00:05:00,0,20823423,187218
OK,71,33,621,71,2014-08-02T00:10:00,0,20823872,187218
OK,71,33,621,71,2014-08-02T00:15:00,0,20824321,187218
OK,107,21,621,107,2014-08-02T00:20:00,2,20824770,187218
OK,107,21,621,107,2014-08-02T00:25:00,2,20825219,187218
OK,81,29,621,81,2014-08-02T00:30:00,0,20825668,187218
OK,81,29,621,81,2014-08-02T00:35:00,0,20826117,187218
OK,81,29,621,81,2014-08-02T00:40:00,0,20826566,187218
OK,81,29,621,81,2014-08-02T00:45:00,0,20827015,187218
OK,81,29,621,81,2014-08-02T00:50:00,0,20827464,187218
OK,81,29,621,81,2014-08-02T00:55:00,0,20827913,187218
OK,81,29,621,81,2014-08-02T01:00:00,0,20828362,187218
OK,81,29,621,81,2014-08-02T01:05:00,0,20828811,187218
OK,81,29,621,81,2014-08-02T01:10:00,0,20829260,187218
OK,81,29,621,81,2014-08-02T01:15:00,0,20829709,187218
OK,81,29,621,81,2014-08-02T01:20:00,0,20830158,187218
OK,81,29,621,81,2014-08-02T01:25:00,0,20830607,187218
OK,81,29,621,81,2014-08-02T01:30:00,0,20831056,187218
OK,81,29,621,81,2014-08-02T01:35:00,0,20831505,187218
OK,81,29,621,81,2014-08-02T01:40:00,0,20831954,187218
OK,81,29,621,81,2014-08-02T01:45:00,0,20832403,187218
OK,81,29,621,81,2014-08-02T01:50:00,0,20832852,187218
OK,81,29,621,81,2014-08-02T01:55:00,0,20833301,187218
OK,81,29,621,81,2014-08-02T02:00:00,0,20833750,187218
OK,81,29,621,81,2014-08-02T02:05:00,0,20834199,187218
OK,81,29,621,81,2014-08-02T02:10:00,0,20834648,187218
OK,81,29,621,81,2014-08-02T02:15:00,0,20835097,187218
OK,81,29,621,81,2014-08-02T02:20:00,0,20835546,187218
OK,81,29,621,81,2014-08-02T02:25:00,0,20835995,187218
OK,81,29,621,81,2014-08-02T02:30:00,0,20836444,187218
OK,81,29,621,81,2014-08-02T02:35:00,0,20836893,187218
OK,81,29,621,81,2014-08-02T02:40:00,0,20837342,187218
OK,81,29,621,81,2014-08-02T02:45:00,0,20837791,187218
OK,81,29,621,81,2014-08-02T02:50:00,0,20838240,187218
OK,81,29,621,81,2014-08-02T02:55:00,0,20838689,187218
OK,81,29,621,81,2014-08-02T03:00:00,0,20839138,187218
OK,81,29,621,81,2014-08-02T03:05:00,0,20839587,187218
OK,81,29,621,81,2014-08-02T03:10:00,0,20840036,187218
OK,81,29,621,81,2014-08-02T03:15:00,0,20840485,187218
OK,81,29,621,81,2014-08-02T03:20:00,0,20840934,187218
OK,81,29,621,81,2014-08-02T03:25:00,0,20841383,187218
OK,81,29,621,81,2014-08-02T03:30:00,0,20841832,187218
OK,81,29,621,81,2014-08-02T03:35:00,0,20842281,187218
OK,81,29,621,81,2014-08-02T03:40:00,0,20842730,187218
OK,81,29,621,81,2014-08-02T03:45:00,0,20843179,187218
OK,81,29,621,81,2014-08-02T03:50:00,0,20843628,187218
OK,81,29,621,81,2014-08-02T03:55:00,0,20844077,187218
OK,81,29,621,81,2014-08-02T04:00:00,0,20844526,187218
OK,81,29,621,81,2014-08-02T04:05:00,0,20844657,187218
OK,81,29,621,81,2014-08-02T04:10:00,0,20844987,187218
OK,81,29,621,81,2014-08-02T04:15:00,0,20845167,187218
OK,81,29,621,81,2014-08-02T04:20:00,0,20845523,187218
OK,81,29,621,81,2014-08-02T04:25:00,0,20845891,187218
OK,81,29,621,81,2014-08-02T04:30:00,0,20846079,187218
OK,81,29,621,81,2014-08-02T04:35:00,0,20846446,187218
OK,81,29,621,81,2014-08-02T04:40:00,0,20846829,187218
OK,155,15,621,155,2014-08-02T04:45:00,1,20847088,187218
OK,155,15,621,155,2014-08-02T04:50:00,0,20847454,187218
OK,155,15,621,155,2014-08-02T04:55:00,0,20847811,187218
OK,42,55,621,42,2014-08-02T05:00:00,1,20848171,187218
OK,42,55,621,42,2014-08-02T05:05:00,1,20848337,187218
OK,126,18,621,126,2014-08-02T05:10:00,1,20848689,187218
OK,126,18,621,126,2014-08-02T05:15:00,1,20848881,187218
OK,126,18,621,126,2014-08-02T05:20:00,0,20849225,187218
OK,126,18,621,126,2014-08-02T05:25:00,0,20849543,187218
OK,126,18,621,126,2014-08-02T05:30:00,0,20849750,187218
OK,126,18,621,126,2014-08-02T05:35:00,0,20850022,187218
OK,126,18,621,126,2014-08-02T05:40:00,0,20850315,187218
OK,126,18,621,126,2014-08-02T05:45:00,0,20850616,187218
OK,126,18,621,126,2014-08-02T05:50:00,0,20850974,187218
OK,126,18,621,126,2014-08-02T05:55:00,0,20851228,187218
OK,126,18,621,126,2014-08-02T06:00:00,0,20851531,187218
OK,126,18,621,126,2014-08-02T06:05:00,0,20851980,187218
OK,126,18,621,126,2014-08-02T06:10:00,0,20852429,187218
OK,126,18,621,126,2014-08-02T06:15:00,0,20852878,187218
OK,126,18,621,126,2014-08-02T06:20:00,0,20853327,187218
OK,126,18,621,126,2014-08-02T06:25:00,0,20853776,187218
OK,126,18,621,126,2014-08-02T06:30:00,0,20854225,187218
OK,126,18,621,126,2014-08-02T06:35:00,0,20854674,187218
OK,160,14,621,160,2014-08-02T06:40:00,1,20855123,187218
OK,160,14,621,160,2014-08-02T06:45:00,1,20855572,187218
OK,147,15,621,147,2014-08-02T06:50:00,1,20856021,187218
OK,147,15,621,147,2014-08-02T06:55:00,1,20856470,187218
OK,147,15,621,147,2014-08-02T07:00:00,0,20856919,187218
OK,147,15,621,147,2014-08-02T07:05:00,0,20857368,187218
OK,147,15,621,147,2014-08-02T07:10:00,0,20857817,187218
OK,147,15,621,147,2014-08-02T07:15:00,0,20858266,187218
OK,131,17,621,131,2014-08-02T07:20:00,1,20858715,187218
OK,90,26,621,90,2014-08-02T07:25:00,2,20859164,187218
OK,50,47,621,50,2014-08-02T07:30:00,1,20859613,187218
OK,50,47,621,50,2014-08-02T07:35:00,0,20860062,187218
OK,50,47,621,50,2014-08-02T07:40:00,0,20860511,187218
OK,50,47,621,50,2014-08-02T07:45:00,0,20860960,187218
OK,50,47,621,50,2014-08-02T07:50:00,0,20861409,187218
OK,50,47,621,50,2014-08-02T07:55:00,0,20861858,187218
OK,148,15,621,148,2014-08-02T08:00:00,1,20862307,187218
OK,111,21,621,111,2014-08-02T08:05:00,2,20862756,187218
OK,74,31,621,74,2014-08-02T08:10:00,1,20863205,187218
OK,74,31,621,74,2014-08-02T08:15:00,0,20863654,187218
OK,74,31,621,74,2014-08-02T08:20:00,0,20864103,187218
OK,137,17,621,137,2014-08-02T08:25:00,1,20864552,187218
OK,92,25,621,92,2014-08-02T08:30:00,3,20865001,187218
OK,109,21,621,109,2014-08-02T08:35:00,4,20865450,187218
OK,109,21,621,109,2014-08-02T08:40:00,2,20865899,187218
OK,100,23,621,100,2014-08-02T08:45:00,0,20866348,187218
OK,125,18,621,125,2014-08-02T08:50:00,1,20866797,187218
OK,125,18,621,125,2014-08-02T08:55:00,1,20867246,187218
OK,125,18,621,125,2014-08-02T09:00:00,0,20867695,187218
OK,37,63,621,37,2014-08-02T09:05:00,1,20868144,187218
OK,37,63,621,37,2014-08-02T09:10:00,1,20868593,187218
OK,26,90,621,26,2014-08-02T09:15:00,1,20869042,187218
OK,26,90,621,26,2014-08-02T09:20:00,1,20869491,187218
OK,26,90,621,26,2014-08-02T09:25:00,0,20869940,187218
OK,98,23,621,98,2014-08-02T09:30:00,1,20870389,187218
OK,98,23,621,98,2014-08-02T09:35:00,1,20870838,187218
OK,98,23,621,98,2014-08-02T09:40:00,0,20871287,187218
OK,136,17,621,136,2014-08-02T09:45:00,3,20871736,187218
OK,137,17,621,137,2014-08-02T09:50:00,4,20872185,187218
OK,157,14,621,157,2014-08-02T09:55:00,2,20872634,187218
OK,157,14,621,157,2014-08-02T10:00:00,0,20873083,187218
OK,157,14,621,157,2014-08-02T10:05:00,0,20873532,187218
OK,120,19,621,120,2014-08-02T10:10:00,3,20873981,187218
OK,127,18,621,127,2014-08-02T10:15:00,4,20874430,187218
OK,139,16,621,139,2014-08-02T10:20:00,0,20874879,187218
OK,139,16,621,139,2014-08-02T10:25:00,0,20875328,187218
OK,139,16,621,139,2014-08-02T10:30:00,0,20875777,187218
OK,139,16,621,139,2014-08-02T10:35:00,0,20876226,187218
OK,120,19,621,120,2014-08-02T10:40:00,2,20876675,187218
OK,120,19,621,120,2014-08-02T10:45:00,2,20877124,187218
OK,55,42,621,55,2014-08-02T10:50:00,0,20877573,187218
OK,55,42,621,55,2014-08-02T10:55:00,0,20878022,187218
OK,118,19,621,118,2014-08-02T11:00:00,2,20878471,187218
OK,118,19,621,118,2014-08-02T11:05:00,2,20878920,187218
OK,118,19,621,118,2014-08-02T11:10:00,0,20879369,187218
OK,118,19,621,118,2014-08-02T11:15:00,0,20879818,187218
OK,118,19,621,118,2014-08-02T11:20:00,0,20880267,187218
OK,132,17,621,132,2014-08-02T11:25:00,1,20880716,187218
OK,114,20,621,114,2014-08-02T11:30:00,3,20881165,187218
OK,114,20,621,114,2014-08-02T11:35:00,3,20881614,187218
OK,125,18,621,125,2014-08-02T11:40:00,3,20882063,187218
OK,88,26,621,88,2014-08-02T11:45:00,1,20882512,187218
OK,88,26,621,88,2014-08-02T11:50:00,0,20882961,187218
OK,103,22,621,103,2014-08-02T11:55:00,1,20883410,187218
OK,97,24,621,97,2014-08-02T12:00:00,3,20883859,187218
OK,97,24,621,97,2014-08-02T12:05:00,3,20884308,187218
OK,141,16,621,141,2014-08-02T12:10:00,1,20884757,187218
OK,141,16,621,141,2014-08-02T12:15:00,1,20885206,187218
OK,56,41,621,56,2014-08-02T12:20:00,1,20885655,187218
OK,56,41,621,56,2014-08-02T12:25:00,1,20886104,187218
OK,56,41,621,56,2014-08-02T12:30:00,0,20886553,187218
OK,56,41,621,56,2014-08-02T12:35:00,0,20887002,187218
OK,56,41,621,56,2014-08-02T12:40:00,0,20887451,187218
OK,56,41,621,56,2014-08-02T12:45:00,0,20887900,187218
OK,36,65,621,36,2014-08-02T12:50:00,1,20888349,187218
OK,36,65,621,36,2014-08-02T12:55:00,1,20888798,187218
OK,36,65,621,36,2014-08-02T13:00:00,0,20889247,187218
OK,36,65,621,36,2014-08-02T13:05:00,0,20889696,187218
OK,36,65,621,36,2014-08-02T13:10:00,0,20890145,187218
OK,36,65,621,36,2014-08-02T13:15:00,0,20890594,187218
OK,36,65,621,36,2014-08-02T13:20:00,0,20891043,187218
OK,127,18,621,127,2014-08-02T13:25:00,1,20891492,187218
OK,127,18,621,127,2014-08-02T13:30:00,1,20891941,187218
OK,127,18,621,127,2014-08-02T13:35:00,0,20892390,187218
OK,127,18,621,127,2014-08-02T13:40:00,0,20892839,187218
OK,127,18,621,127,2014-08-02T13:45:00,0,20893288,187218
OK,84,27,621,84,2014-08-02T13:50:00,1,20893737,187218
OK,84,27,621,84,2014-08-02T13:55:00,1,20894186,187218
OK,84,27,621,84,2014-08-02T14:00:00,0,20894635,187218
OK,84,27,621,84,2014-08-02T14:05:00,0,20895084,187218
OK,76,30,621,76,2014-08-02T14:10:00,1,20895533,187218
OK,76,30,621,76,2014-08-02T14:15:00,0,20895982,187218
OK,76,30,621,76,2014-08-02T14:20:00,0,20896431,187218
OK,76,30,621,76,2014-08-02T14:25:00,0,20896880,187218
OK,76,30,621,76,2014-08-02T14:30:00,0,20897329,187218
OK,76,30,621,76,2014-08-02T14:35:00,0,20897778,187218
OK,76,30,621,76,2014-08-02T14:40:00,0,20898227,187218
OK,76,30,621,76,2014-08-02T14:45:00,0,20898676,187218
OK,76,30,621,76,2014-08-02T14:50:00,0,20899125,187218
OK,76,30,621,76,2014-08-02T14:55:00,0,20899574,187218
OK,76,30,621,76,2014-08-02T15:00:00,0,20900023,187218
OK,76,30,621,76,2014-08-02T15:05:00,0,20900472,187218
OK,76,30,621,76,2014-08-02T15:10:00,0,20900921,187218
OK,59,39,621,59,2014-08-02T15:15:00,1,20901370,187218
OK,59,39,621,59,2014-08-02T15:20:00,1,20901819,187218
OK,59,39,621,59,2014-08-02T15:25:00,0,20902268,187218
OK,59,39,621,59,2014-08-02T15:30:00,0,20902717,187218
OK,126,18,621,126,2014-08-02T15:35:00,1,20903166,187218
OK,126,18,621,126,2014-08-02T15:40:00,1,20903615,187218
OK,126,18,621,126,2014-08-02T15:45:00,0,20904064,187218
OK,54,43,621,54,2014-08-02T15:50:00,1,20904513,187218
OK,54,43,621,54,2014-08-02T15:55:00,1,20904962,187218
OK,54,43,621,54,2014-08-02T16:00:00,0,20905411,187218
OK,54,43,621,54,2014-08-02T16:05:00,0,20905860,187218
OK,54,43,621,54,2014-08-02T16:10:00,0,20906309,187218
OK,54,43,621,54,2014-08-02T16:15:00,0,20906758,187218
OK,54,43,621,54,2014-08-02T16:20:00,0,20907207,187218
OK,54,43,621,54,2014-08-02T16:25:00,0,20907656,187218
OK,54,43,621,54,2014-08-02T16:30:00,0,20908105,187218
OK,54,43,621,54,2014-08-02T16:35:00,0,20908554,187218
OK,54,43,621,54,2014-08-02T16:40:00,0,20909003,187218
OK,54,43,621,54,2014-08-02T16:45:00,0,20909452,187218
OK,54,43,621,54,2014-08-02T16:50:00,0,20909901,187218
OK,54,43,621,54,2014-08-02T16:55:00,0,20910350,187218
OK,54,43,621,54,2014-08-02T17:00:00,0,20910799,187218
OK,125,18,621,125,2014-08-02T17:05:00,1,20911248,187218
OK,125,18,621,125,2014-08-02T17:10:00,1,20911697,187218
OK,125,18,621,125,2014-08-02T17:15:00,0,20912146,187218
OK,125,18,621,125,2014-08-02T17:20:00,0,20912595,187218
OK,125,18,621,125,2014-08-02T17:25:00,0,20913044,187218
OK,128,18,621,128,2014-08-02T17:30:00,1,20913493,187218
OK,128,18,621,128,2014-08-02T17:35:00,1,20913942,187218
OK,107,21,621,107,2014-08-02T17:40:00,1,20914391,187218
OK,107,21,621,107,2014-08-02T17:45:00,1,20914840,187218
OK,107,21,621,107,2014-08-02T17:50:00,0,20915289,187218
OK,107,21,621,107,2014-08-02T17:55:00,0,20915738,187218
OK,107,21,621,107,2014-08-02T18:00:00,0,20916187,187218
OK,107,21,621,107,2014-08-02T18:05:00,0,20916636,187218
OK,107,21,621,107,2014-08-02T18:10:00,0,20917085,187218
OK,107,21,621,107,2014-08-02T18:15:00,0,20917534,187218
OK,107,21,621,107,2014-08-02T18:20:00,0,20917983,187218
OK,62,37,621,62,2014-08-02T18:25:00,1,20918432,187218
OK,61,38,621,61,2014-08-02T18:30:00,2,20918881,187218
OK,84,27,621,84,2014-08-02T18:35:00,4,20919330,187218
OK,117,20,621,117,2014-08-02T18:40:00,4,20919779,187218
OK,157,14,621,157,2014-08-02T18:45:00,1,20920228,187218
OK,157,14,621,157,2014-08-02T18:50:00,0,20920677,187218
OK,157,14,621,157,2014-08-02T18:55:00,0,20921126,187218
OK,157,14,621,157,2014-08-02T19:00:00,0,20921575,187218
OK,157,14,621,157,2014-08-02T19:05:00,0,20922024,187218
OK,157,14,621,157,2014-08-02T19:10:00,0,20922473,187218
OK,157,14,621,157,2014-08-02T19:15:00,0,20922922,187218
OK,157,14,621,157,2014-08-02T19:20:00,0,20923371,187218
OK,100,23,621,100,2014-08-02T19:25:00,1,20923820,187218
OK,100,23,621,100,2014-08-02T19:30:00,0,20924269,187218
OK,100,23,621,100,2014-08-02T19:35:00,0,20924718,187218
OK,100,23,621,100,2014-08-02T19:40:00,0,20925167,187218
OK,100,23,621,100,2014-08-02T19:45:00,0,20925616,187218
OK,100,23,621,100,2014-08-02T19:50:00,0,20926065,187218